#timestamp,LO_Frequency,Hit,StdDev 
1705255215.8,286046999.3,N
1705255235.6,286046999.5,N
1705255255.5,286046996.6,N
1705255275.3,286046996.8,N
1705255295.1,286046997.4,N
1705255315.9,286046999.5,N
1705255335.7,286046999.6,N
1705255355.5,286046999.6,N
1705255375.4,286046998.9,N
1705255395.2,286046998.9,N
1705255415.1,286046998.4,N
1705255416.0,286046998.4,N
1705255435.8,286047000.7,N
1705255455.6,286046998.6,N
1705255475.5,286046999.0,N
1705255495.3,286046998.5,N
1705255515.1,286047000.8,N
1705255535.9,286047001.1,N
1705255555.7,286046999.4,N
1705255575.6,286046999.2,N
1705255595.4,286046998.8,N
1705255615.2,286046997.3,N
1705255635.1,286046997.7,N
1705255636.0,286046997.7,N
1705255655.8,286046997.2,N
1705255675.7,286046997.0,N
1705255695.5,286046997.0,N
1705255715.3,286046997.4,N
1705255735.2,286046997.9,N
1705255755.9,286046997.6,N
1705255775.7,286046997.3,N
1705255795.6,286046997.0,N
1705255815.4,286046997.1,N
1705255835.2,286046996.9,N
1705255855.1,286046997.0,N
1705255856.0,286046997.0,N
1705255875.8,286046996.6,N
1705255895.7,286046995.2,Y
1705255915.5,286046999.2,P
1705255935.3,286046997.2,P
1705255955.2,286046997.7,N
1705255975.0,286046997.9,N
1705255975.9,286046997.9,Y
1705255995.8,286046999.1,P
1705256015.6,286046998.6,N
1705256035.4,286046998.7,P
1705256055.3,286046998.9,N
1705256075.1,286046996.6,Y
1705256095.9,286046998.6,P
1705256115.7,286046998.9,P
1705256135.5,286046998.3,P
1705256155.4,286046998.3,Y
1705256175.2,286047000.1,P
1705256195.0,286047000.2,N
1705256195.9,286047000.2,N
1705256215.8,286047002.1,Y
1705256235.6,286046999.8,P
1705256255.5,286047000.2,P
1705256275.3,286047002.5,P
1705256295.1,286047002.6,N
1705256315.9,286047003.9,N
1705256335.7,286047004.1,N
1705256355.5,286047003.8,N
1705256375.4,286047001.5,N
1705256395.2,286047004.4,N
1705256415.1,286047004.1,N
1705256416.0,286047004.1,N
1705256435.8,286047003.6,N
1705256455.6,286047001.6,N
1705256475.5,286047001.3,N
1705256495.3,286047001.5,N
1705256515.1,286047002.2,N
1705256535.9,286047002.5,N
1705256555.7,286047002.6,N
1705256575.6,286047002.6,N
1705256595.4,286047001.7,N
1705256615.2,286047002.4,N
1705256635.1,286047002.3,N
1705256636.0,286047002.3,N
1705256655.8,286046999.8,N
1705256675.6,286047002.3,N
1705256695.5,286047001.6,N
1705256715.3,286047003.6,N
1705256735.2,286047004.4,Y
1705256755.9,286047000.9,P
1705256775.7,286046998.5,N
1705256795.6,286047001.1,N
1705256815.4,286047001.0,N
1705256835.2,286046998.6,N
1705256855.1,286046999.2,N
1705256856.0,286046999.2,N
1705256875.8,286046999.1,N
1705256895.7,286046998.8,N
1705256915.5,286046998.9,N
1705256935.3,286046999.4,N
1705256955.2,286046999.3,N
1705256975.0,286046999.5,N
1705256975.9,286046999.5,N
1705256995.8,286046996.6,Y
1705257015.6,286046999.3,P
1705257035.4,286047001.1,P
1705257055.3,286047000.6,N
1705257075.1,286046998.1,N
1705257095.8,286046999.0,N
1705257115.7,286046998.3,N
1705257135.5,286046999.0,N
1705257155.4,286046996.6,Y
1705257175.2,286046999.6,P
1705257195.0,286046998.7,P
1705257195.9,286046998.7,P
1705257215.8,286046999.4,N
1705257235.6,286046996.6,Y
1705257285.5,286046998.5,E
1705257295.4,286047000.5,N
1705257315.2,286046999.7,P
1705257335.1,286047001.3,P
1705257336.0,286047001.3,N
1705257355.8,286047002.4,Y
1705257375.7,286047000.0,P
1705257395.5,286046999.7,N
1705257415.3,286046999.9,N
1705257435.2,286047000.5,N
1705257455.0,286047001.0,N
1705257455.9,286047001.0,N
1705257475.7,286046998.5,Y
1705257495.6,286046999.3,P
1705257515.4,286046997.9,P
1705257535.3,286046994.9,P
1705257555.1,286046995.1,N
1705257575.8,286046996.2,N
1705257595.7,286046996.2,N
1705257615.5,286046996.2,N
1705257635.4,286046993.9,Y
1705257655.2,286046997.2,P
1705257675.0,286046997.1,P
1705257675.9,286046997.1,P
1705257695.8,286046998.0,Y
1705257715.6,286046998.9,P
1705257735.4,286046998.7,N
1705257755.3,286046998.4,N
1705257775.1,286047000.7,N
1705257795.9,286046998.2,N
1705257815.7,286047000.8,N
1705257835.5,286047001.0,N
1705257855.4,286047000.4,N
1705257875.2,286047000.8,N
1705257895.0,286046998.1,N
1705257895.9,286046998.1,N
1705257915.8,286047000.8,N
1705257935.6,286046998.2,N
1705257955.5,286047000.4,N
1705257975.3,286047000.9,N
1705257995.1,286047000.6,N
1705258015.9,286047002.8,N
1705258035.7,286046999.9,N
1705258055.5,286047002.8,N
1705258075.4,286047000.0,N
1705258095.2,286047000.0,N
1705258115.1,286046999.8,N
1705258116.0,286046999.8,N
1705258135.8,286047001.5,N
1705258155.6,286047001.7,N
1705258205.5,286047001.3,E
1705258215.4,286047001.6,N
1705258235.3,286047000.2,P
1705258255.1,286047002.2,P
1705258275.8,286047001.3,N
1705258295.7,286047002.6,Y
1705258315.5,286047000.5,P
1705258335.4,286047000.3,N
1705258355.2,286047000.9,N
1705258375.0,286046999.8,N
1705258375.9,286046999.8,N
1705258395.8,286047002.5,Y
1705258415.6,286047000.4,P
1705258435.4,286047001.2,P
1705258455.3,286046998.1,P
1705258475.1,286047001.1,N
1705258495.9,286047000.5,N
1705258515.7,286046999.8,N
1705258535.5,286047000.2,N
1705258555.4,286046999.8,N
1705258575.2,286046999.7,N
1705258595.0,286047000.3,N
1705258595.9,286047000.3,N
1705258615.8,286047000.8,N
1705258635.6,286047001.0,N
1705258655.5,286047000.1,N
1705258675.3,286046999.8,N
1705258695.1,286047002.4,Y
1705258715.9,286047002.6,P
1705258735.7,286047002.8,N
1705258755.5,286047000.5,N
1705258775.4,286047002.3,N
1705258795.2,286047002.6,N
